Hourly Weather Ali Bayramli

Today, 5 December, Saturday

Time Temperature Precipitation Wind Pressure Humidity
00:00 +7°C° 1.2 mm 6 mps 769 mmHg 86%
01:00 +7°C° 0.7 mm 6 mps 769 mmHg 85%
02:00 +7°C° 0.7 mm 5 mps 768 mmHg 84%
03:00 +5°C° 0 mm 6 mps 768 mmHg 84%
04:00 +5°C° 0.3 mm 6 mps 768 mmHg 84%
05:00 +5°C° 0.3 mm 6 mps 768 mmHg 84%
06:00 +6°C° 0.3 mm 5 mps 768 mmHg 84%
07:00 +6°C° 0.3 mm 5 mps 768 mmHg 83%
08:00 +6°C° 0.3 mm 5 mps 769 mmHg 83%
09:00 +6°C° 0 mm 5 mps 769 mmHg 84%
10:00 +6°C° 0.4 mm 5 mps 769 mmHg 83%
11:00 +5°C° 0.4 mm 6 mps 768 mmHg 82%
12:00 +5°C° 0.4 mm 6 mps 768 mmHg 81%
13:00 +5°C° 0.2 mm 6 mps 768 mmHg 80%
14:00 +5°C° 0.2 mm 7 mps 767 mmHg 78%
15:00 +5°C° 0.2 mm 7 mps 767 mmHg 77%
16:00 +5°C° 0.1 mm 7 mps 768 mmHg 75%
17:00 +5°C° 0.1 mm 7 mps 768 mmHg 73%
18:00 +5°C° 0.1 mm 7 mps 768 mmHg 70%
19:00 +5°C° 0 mm 7 mps 768 mmHg 69%
20:00 +5°C° 0 mm 7 mps 768 mmHg 69%
21:00 +4°C° 0 mm 8 mps 768 mmHg 68%
22:00 +4°C° 0 mm 8 mps 768 mmHg 67%
23:00 +4°C° 0 mm 8 mps 768 mmHg 67%

Tomorrow, 6 December, Sunday

Time Temperature Precipitation Wind Pressure Humidity
00:00 +4°C° 0 mm 8 mps 768 mmHg 66%
01:00 +4°C° 0 mm 7 mps 768 mmHg 66%
02:00 +4°C° 0 mm 7 mps 768 mmHg 67%
03:00 +4°C° 0 mm 7 mps 768 mmHg 67%
04:00 +4°C° 0 mm 7 mps 768 mmHg 68%
05:00 +4°C° 0 mm 6 mps 768 mmHg 68%
06:00 +4°C° 0 mm 6 mps 768 mmHg 68%
07:00 +4°C° 0 mm 7 mps 768 mmHg 67%
08:00 +4°C° 0 mm 7 mps 768 mmHg 65%
09:00 +4°C° 0 mm 8 mps 768 mmHg 63%
10:00 +5°C° 0 mm 8 mps 768 mmHg 60%
11:00 +5°C° 0 mm 8 mps 768 mmHg 58%
12:00 +6°C° 0 mm 8 mps 768 mmHg 55%
13:00 +6°C° 0 mm 8 mps 768 mmHg 56%
14:00 +5°C° 0 mm 8 mps 768 mmHg 57%
15:00 +5°C° 0 mm 8 mps 768 mmHg 58%
16:00 +5°C° 0 mm 8 mps 768 mmHg 59%
17:00 +4°C° 0 mm 7 mps 769 mmHg 61%
18:00 +4°C° 0 mm 7 mps 769 mmHg 63%
19:00 +4°C° 0 mm 7 mps 769 mmHg 63%
20:00 +3°C° 0 mm 7 mps 769 mmHg 62%
21:00 +3°C° 0 mm 7 mps 770 mmHg 62%
22:00 +3°C° 0 mm 6 mps 770 mmHg 62%
23:00 +3°C° 0 mm 6 mps 770 mmHg 62%

Day after tomorrow, 7 December, Monday

Time Temperature Precipitation Wind Pressure Humidity
00:00 +3°C° 0 mm 5 mps 770 mmHg 62%
01:00 +3°C° 0 mm 5 mps 770 mmHg 64%
02:00 +3°C° 0 mm 5 mps 770 mmHg 65%
03:00 +4°C° 0 mm 4 mps 770 mmHg 67%
04:00 +4°C° 0 mm 4 mps 770 mmHg 70%
05:00 +4°C° 0 mm 4 mps 770 mmHg 72%
06:00 +3°C° 0 mm 3 mps 771 mmHg 75%
07:00 +4°C° 0 mm 4 mps 771 mmHg 74%
08:00 +4°C° 0 mm 4 mps 771 mmHg 72%
09:00 +4°C° 0 mm 4 mps 771 mmHg 70%
10:00 +5°C° 0 mm 4 mps 771 mmHg 67%
11:00 +5°C° 0 mm 3 mps 771 mmHg 64%
12:00 +7°C° 0 mm 3 mps 771 mmHg 61%
13:00 +7°C° 0 mm 3 mps 771 mmHg 60%
14:00 +7°C° 0 mm 2 mps 770 mmHg 60%
15:00 +7°C° 0 mm 2 mps 770 mmHg 59%
16:00 +6°C° 0 mm 2 mps 770 mmHg 61%
17:00 +6°C° 0 mm 2 mps 771 mmHg 64%
18:00 +6°C° 0 mm 2 mps 771 mmHg 66%
19:00 +5°C° 0 mm 2 mps 771 mmHg 67%
20:00 +5°C° 0 mm 2 mps 771 mmHg 69%
21:00 +4°C° 0 mm 2 mps 771 mmHg 70%
22:00 +4°C° 0 mm 2 mps 771 mmHg 71%
23:00 +4°C° 0 mm 2 mps 771 mmHg 71%

8 December, Tuesday

Time Temperature Precipitation Wind Pressure Humidity
00:00 +4°C° 0 mm 1 mps 770 mmHg 72%
01:00 +4°C° 0 mm 1 mps 770 mmHg 73%
02:00 +4°C° 0 mm 1 mps 770 mmHg 74%
03:00 +3°C° 0 mm 0 mps 770 mmHg 75%
04:00 +3°C° 0 mm 0 mps 770 mmHg 75%
05:00 +2°C° 0 mm 0 mps 770 mmHg 76%
06:00 +2°C° 0 mm 0 mps 770 mmHg 77%
07:00 +3°C° 0 mm 0 mps 770 mmHg 73%
08:00 +5°C° 0 mm 1 mps 770 mmHg 70%
09:00 +6°C° 0 mm 1 mps 770 mmHg 66%
10:00 +6°C° 0 mm 1 mps 770 mmHg 63%
11:00 +7°C° 0 mm 1 mps 770 mmHg 60%
12:00 +8°C° 0 mm 1 mps 769 mmHg 57%
13:00 +8°C° 0 mm 1 mps 769 mmHg 56%
14:00 +8°C° 0 mm 1 mps 769 mmHg 54%
15:00 +7°C° 0 mm 0 mps 769 mmHg 53%
16:00 +7°C° 0 mm 0 mps 769 mmHg 58%
17:00 +6°C° 0 mm 0 mps 769 mmHg 62%
18:00 +5°C° 0 mm 0 mps 770 mmHg 67%
19:00 +5°C° 0 mm 0 mps 770 mmHg 67%
20:00 +5°C° 0 mm 0 mps 770 mmHg 67%
21:00 +5°C° 0 mm 0 mps 770 mmHg 67%
22:00 +6°C° 0 mm 1 mps 770 mmHg 67%
23:00 +7°C° 0 mm 1 mps 770 mmHg 66%

9 December, Wednesday

Time Temperature Precipitation Wind Pressure Humidity
00:00 +7°C° 0 mm 1 mps 770 mmHg 65%
01:00 +7°C° 0 mm 1 mps 770 mmHg 65%
02:00 +7°C° 0 mm 1 mps 770 mmHg 65%
03:00 +7°C° 0 mm 1 mps 769 mmHg 65%
04:00 +7°C° 0 mm 1 mps 770 mmHg 65%
05:00 +7°C° 0 mm 1 mps 770 mmHg 65%
06:00 +7°C° 0 mm 1 mps 770 mmHg 65%
07:00 +7°C° 0 mm 1 mps 770 mmHg 64%
08:00 +6°C° 0 mm 2 mps 770 mmHg 64%
09:00 +6°C° 0 mm 2 mps 770 mmHg 63%
10:00 +7°C° 0 mm 2 mps 770 mmHg 62%
11:00 +7°C° 0 mm 3 mps 769 mmHg 60%
12:00 +8°C° 0 mm 3 mps 769 mmHg 59%
13:00 +8°C° 0.1 mm 3 mps 769 mmHg 61%
14:00 +8°C° 0.1 mm 3 mps 769 mmHg 63%
15:00 +8°C° 0.1 mm 3 mps 769 mmHg 65%
16:00 +8°C° 0.4 mm 3 mps 769 mmHg 68%
17:00 +8°C° 0.4 mm 3 mps 769 mmHg 71%
18:00 +7°C° 0.4 mm 3 mps 769 mmHg 74%
19:00 +6°C° 0.3 mm 4 mps 769 mmHg 76%
20:00 +6°C° 0.3 mm 4 mps 769 mmHg 77%
21:00 +6°C° 0.3 mm 4 mps 769 mmHg 79%
22:00 +6°C° 0.1 mm 4 mps 769 mmHg 80%
23:00 +6°C° 0.1 mm 4 mps 769 mmHg 81%

10 December, Thursday

Time Temperature Precipitation Wind Pressure Humidity
00:00 +6°C° 0.1 mm 4 mps 769 mmHg 82%
01:00 +7°C° 0.1 mm 3 mps 769 mmHg 82%
02:00 +7°C° 0.1 mm 3 mps 769 mmHg 83%
03:00 +7°C° 0.1 mm 2 mps 770 mmHg 83%
04:00 +6°C° 0.1 mm 2 mps 770 mmHg 82%
05:00 +6°C° 0.1 mm 2 mps 770 mmHg 80%
06:00 +6°C° 0.1 mm 2 mps 770 mmHg 79%
07:00 +8°C° 0.1 mm 1 mps 770 mmHg 77%
08:00 +8°C° 0.1 mm 1 mps 770 mmHg 76%
09:00 +8°C° 0.1 mm 1 mps 771 mmHg 75%
10:00 +8°C° 0.1 mm 1 mps 770 mmHg 75%
11:00 +9°C° 0.1 mm 1 mps 770 mmHg 75%
12:00 +8°C° 0.1 mm 2 mps 770 mmHg 76%
13:00 +8°C° 0.1 mm 2 mps 770 mmHg 77%
14:00 +8°C° 0.1 mm 2 mps 769 mmHg 79%
15:00 +8°C° 0.1 mm 2 mps 769 mmHg 80%
16:00 +8°C° 0.1 mm 2 mps 770 mmHg 83%
17:00 +8°C° 0.1 mm 2 mps 770 mmHg 85%
18:00 +7°C° 0.1 mm 2 mps 770 mmHg 87%
19:00 +7°C° 0.3 mm 2 mps 770 mmHg 88%
20:00 +7°C° 0.3 mm 2 mps 770 mmHg 88%
21:00 +7°C° 0.3 mm 2 mps 770 mmHg 89%
22:00 +7°C° 0.6 mm 2 mps 770 mmHg 89%
23:00 +7°C° 0.6 mm 2 mps 770 mmHg 90%
Show more

We Need Your Consent

Meteoprog and our Service Providers may store and access personal data such as cookies, device identifiers or other similar technologies on your device and process such data to personalise content and ads, as well as provide social media features and to analyse the traffic.

  • Store and/or access information on your device

    Cookies, device identifiers or other information can be stored or accessed on your device for the purposes indicated above.

  • Personalised ads and content, ad and content measurement, audience insights, and products development

    Ads and content can be personalised based on a profile. More data can be added to better personalise ads and content. Ad and content performance can be measured. Insights about the audience who saw the ads and content can be derived. Such data can be used to develop or improve user’s experience, systems and software.

By clicking ‘I Agree’ you will allow the use of indicated cookies, device identifiers, web beacons or other similar technologies. Your settings can be changed in the browser on your device.

For certain purposes, legitimate interests may be relied on, rather than consent. You can read more about this in our Privacy and Cookie Policy.